Location: Newark
(41.5333°N, 14.5500°E)
Time: 19:58:09
(UTC+00:00)

Envisat - Pass Details

Date: 28 January 2020
Orbit: 764 x 766 km, 98.1° (Epoch: 23 February)

Event Time Altitude Azimuth Distance (km) Brightness Sun altitude
Rises 04:21:55 0° 33° (NNE) 3,239 6.6 -21.7°
Reaches altitude 10° 04:25:25 10° 58° (ENE) 2,306 6.2 -21.1°
Maximum altitude 04:28:02 14° 90° (E) 2,030 6.3 -20.6°
Drops below altitude 10° 04:30:39 10° 121° (ESE) 2,297 6.4 -20.1°
Sets 04:34:06 0° 146° (SE) 3,216 6.8 -19.5°
